Location: ?????????
(53.2086°N, 54.0693°E)
Time: 00:57:05
(UTC+00:00)

PSLV R/B - Pass Details

Date: 08 December 2019
Orbit: 567 x 600 km, 98.1° (Epoch: 20 January)

Event Time Altitude Azimuth Distance (km) Brightness Sun altitude
Exits shadow 13:52:12 - 13° (NNE) 2,235 6.6 -14.7°
Reaches altitude 10° 13:52:55 10° 13° (NNE) 1,938 6.3 -14.8°
Maximum altitude 13:57:07 79° 287° (WNW) 607 4.0 -15.4°
Drops below altitude 10° 14:01:15 10° 201° (SSW) 1,903 7.1 -16.0°
Sets 14:03:23 0° 201° (SSW) 2,792 8.0 -16.3°
